Location: Quedlinburg
(51.7921°N, 11.1414°E)
Time: 07:27:52
(UTC+02:00)

SO-50 - Pass Details

Date: 12 March 2026
Orbit: 567 x 673 km, 64.6° (Epoch: 13 April)

Event Time Altitude Azimuth Distance (km) Brightness Sun altitude
Rises 20:04:34 0° 230° (SW) 2,939 ? -17.6°
Reaches altitude 10° 20:06:51 10° 233° (SW) 2,049 ? -17.9°
Maximum altitude 20:11:30 67° 317° (NW) 721 ? -18.6°
Drops below altitude 10° 20:16:16 10° 40° (NE) 2,106 ? -19.3°
Enters shadow 20:16:59 - 41° (NE) 2,378 ? -19.4°
